Find GSAT-6

NORAD ID: 40880 Int'l Des: 2015-041 Owner: ISRO Country: IN operational
HEOCIRCULARGSO

Aktuelle Ansicht

3D-Globus wird geladen...

Über GSAT-6

Beschreibung wird geladen...

Nächste Überflüge

Passes for default location (London). Set your location on the main map for personalized predictions.

Höhenverlauf

Loading altitude history...

Zweizeiliger Elementsatz

1 40880U 15041A 26151.17530978 -.00000149 00000-0 00000+0 0 9990
2 40880 1.8763 82.7966 0003351 343.2709 328.2381 1.00272697 39424
Epoch: 31. Mai 2026 • Age: 12 hours

Aktueller Status

Höhe 35797.0 km
Geschwindigkeit 3.07 km/s
Subsatellitenpunkt 1.49°N, 82.55°E
Startdatum 27. Aug. 2015
Alter 10.7 years
Typ other

Technische Details

Klassifizierung Payload
Masse 2117.00 kg
Trockenmasse 985.00 kg
Gesamtmasse 2217.00 kg
Länge 3.60 m
Durchmesser 2.00 m
Spannweite 9.50 m
Form Box + 2 Pan
Hersteller ISAC
Bus-Typ I2K
Phasenstatus In Orbit
Besitzer/Staat ISRO/IN

Most Searched